Weather in Hadiboh

Yemen     12°39′00″N   54°01′22″E
temp.,
°C
wind,
m/s
gust,
m/s
humid.,
%
clouds,
%
prec.,
mm/h
press.,
hPa
HPBL,
m
8 march, mon
mon800:00+25e447614 0.0 1013473
03:00+25e33717 0.0 1012415
06:00+25e44700 0.0 1013370
09:00+25ene56700 0.0 1015438
12:00+25ene56720 0.0 1013448
15:00+26ne66710 0.0 1011509
18:00+26ene567328 0.0 1013579
21:00+25e567663 0.0 1014636
9 march, tue
tue900:00+25e55762 0.0 1013621
03:00+25ese56744 0.0 1011524
06:00+25ese45700 0.0 1014570
09:00+26e55700 0.0 1015493
12:00+25ene88760 0.0 1014434
15:00+26ne99750 0.0 1012522
18:00+26ene66750 0.0 1014571
21:00+26e56740 0.0 1015488
10 march, wed
wed1000:00+25e44740 0.0 1013444
03:00+25e33730 0.0 1012456
06:00+25e45750 0.0 1014597
09:00+26e56760 0.0 1016537
12:00+25ene88810 0.0 1014383
15:00+26ene89800 0.0 1011455
18:00+26ene56800 0.0 1013484
21:00+26ene66800 0.0 1014453
11 march, thu
thu1100:00+25e56790 0.0 1013409
03:00+25ese44760 0.0 1012385
06:00+25ese44720 0.0 1013377
09:00+26e55730 0.0 1015440
12:00+25ene67770 0.0 1013308
15:00+26ene78740 0.0 1011404
18:00+26ne45740 0.0 1012401
21:00+26ene44730 0.0 1013325
12 march, fri
fri1200:00+26e44730 0.0 1012257
03:00+26ese34690 0.0 1011279
06:00+26ese44660 0.0 1013293
09:00+26e33640 0.0 1015267
12:00+25ene66740 0.0 1013285
15:00+25ne56710 0.0 1010330
18:00+26ene55700 0.0 1012418
21:00+26ese45670 0.0 1013240